User: anonymous   Login
Location: Natural Bridges National Monument
(37.6093°N, 109.9767°W)
Time: 07:38:40
(UTC-07:00)
Language:

Cosmos 1727 Rocket - Orbit

View from above orbital plane
View from above orbital plane
View from above satellite
View from above satellite

Ground track
Ground track

The orbit data is extracted from the following two-line orbital elements,

1 16511U 86008B   16343.64488418 -.00000033  00000-0 -49640-4 0  9991
2 16511  82.9433   1.2288 0025564  94.9423  44.5346 13.75812235550079
Epoch (UTC): 08 December 2016 15:28:37
Eccentricity: 0.0025564
inclination: 82.9433°
perigee height: 960 km
apogee height: 997 km
right ascension of ascending node: 1.2288°
argument of perigee: 94.9423°
revolutions per day: 13.75812235
mean anomaly at epoch: 44.5346°
orbit number at epoch: 55007

The dashed part of the orbit path shows where the satellite is in the earth's shadow,  

DLR